Find Starlink 32514

NORAD ID: 61965 Int'l Des: 2024-210 Owner: SPXS Country: US Constellation: starlink operational
LEOCIRCULAR

Current View

Loading 3D Globe...

About Starlink 32514

Starlink 32514 (NORAD 61965) is a starlink constellation satellite (v2 mini) launched Nov 14, 2024 by SPXS of US. It operates in LEO, CIRCULAR orbit with a mass of 730.00 kg.

About Starlink 32514

Description loading...

Upcoming Passes

Passes for default location (London). Set your location on the main map for personalized predictions.

Altitude History

Loading altitude history...

Two-Line Element Set

1 61965U 24210G 26170.44610355 .00013883 00000-0 51302-3 0 9997
2 61965 43.0020 318.1222 0001260 274.4017 85.6690 15.27584333 90555
Epoch: Jun 19, 2026 • Age: 20 hours

Current Status

Altitude 482.5 km
Velocity 7.63 km/s
Sub-Earth Point 14.71°N, 115.39°E
Launch Date Nov 14, 2024
Age 1.5 years
Type internet

Technical Details

Classification Payload
Mass 730.00 kg
Dry Mass 700.00 kg
Total Mass 730.00 kg
Length 0.30 m
Diameter 4.10 m
Span 29.00 m
Shape Box + pan
Manufacturer SPXS
Bus Type Starlink V2M
Phase Status In Orbit
Owner/State SPXS/US

Most Searched